Tiempo cada hora Alle

Hoy, 3 Agosto, Martes

Tiempo Temperatura Precipitaciones Viento Presión Humedad
00:00 +11°C° 0 mm 1 mps 708 mmHg 90%
01:00 +11°C° 0 mm 1 mps 708 mmHg 90%
02:00 +11°C° 0 mm 1 mps 707 mmHg 89%
03:00 +11°C° 0 mm 1 mps 707 mmHg 88%
04:00 +12°C° 0 mm 1 mps 707 mmHg 88%
05:00 +13°C° 0 mm 1 mps 707 mmHg 87%
06:00 +13°C° 0 mm 1 mps 707 mmHg 86%
07:00 +15°C° 0.1 mm 1 mps 707 mmHg 80%
08:00 +16°C° 0.1 mm 2 mps 707 mmHg 74%
09:00 +18°C° 0.1 mm 2 mps 708 mmHg 68%
10:00 +18°C° 0.4 mm 3 mps 707 mmHg 71%
11:00 +18°C° 0.4 mm 3 mps 707 mmHg 75%
12:00 +17°C° 0.4 mm 4 mps 707 mmHg 79%
13:00 +17°C° 0.6 mm 3 mps 707 mmHg 83%
14:00 +16°C° 0.6 mm 3 mps 707 mmHg 86%
15:00 +14°C° 0.6 mm 3 mps 707 mmHg 90%
16:00 +13°C° 1.6 mm 3 mps 707 mmHg 92%
17:00 +13°C° 1.6 mm 2 mps 707 mmHg 95%
18:00 +13°C° 1.6 mm 1 mps 707 mmHg 97%
19:00 +12°C° 1.3 mm 1 mps 707 mmHg 97%
20:00 +12°C° 1.3 mm 1 mps 707 mmHg 97%
21:00 +12°C° 1.3 mm 1 mps 707 mmHg 97%
22:00 +12°C° 0.5 mm 1 mps 707 mmHg 97%
23:00 +12°C° 0.5 mm 1 mps 707 mmHg 97%

Mañana, 4 Agosto, Miércoles

Tiempo Temperatura Precipitaciones Viento Presión Humedad
00:00 +12°C° 0.5 mm 1 mps 707 mmHg 97%
01:00 +12°C° 0.4 mm 1 mps 706 mmHg 97%
02:00 +12°C° 0.4 mm 1 mps 706 mmHg 96%
03:00 +12°C° 0.4 mm 1 mps 706 mmHg 96%
04:00 +11°C° 0.6 mm 0 mps 706 mmHg 96%
05:00 +11°C° 0.6 mm 0 mps 706 mmHg 97%
06:00 +11°C° 0.6 mm 0 mps 706 mmHg 97%
07:00 +11°C° 0.7 mm 0 mps 706 mmHg 97%
08:00 +12°C° 0.7 mm 0 mps 706 mmHg 97%
09:00 +12°C° 0.7 mm 0 mps 706 mmHg 96%
10:00 +12°C° 0.2 mm 0 mps 706 mmHg 95%
11:00 +13°C° 0.2 mm 0 mps 706 mmHg 94%
12:00 +14°C° 0.2 mm 1 mps 706 mmHg 92%
13:00 +15°C° 0.1 mm 1 mps 706 mmHg 91%
14:00 +15°C° 0.1 mm 1 mps 706 mmHg 90%
15:00 +14°C° 0.1 mm 0 mps 706 mmHg 88%
16:00 +14°C° 0.2 mm 0 mps 706 mmHg 90%
17:00 +14°C° 0.2 mm 0 mps 706 mmHg 92%
18:00 +13°C° 0.2 mm 0 mps 706 mmHg 94%
19:00 +13°C° 0.1 mm 0 mps 706 mmHg 94%
20:00 +12°C° 0.1 mm 0 mps 706 mmHg 95%
21:00 +13°C° 0.1 mm 1 mps 707 mmHg 96%
22:00 +13°C° 0 mm 1 mps 706 mmHg 96%
23:00 +13°C° 0 mm 1 mps 706 mmHg 96%

Pasado mañana, 5 Agosto, Jueves

Tiempo Temperatura Precipitaciones Viento Presión Humedad
00:00 +12°C° 0 mm 1 mps 706 mmHg 96%
01:00 +12°C° 0 mm 1 mps 706 mmHg 96%
02:00 +12°C° 0 mm 1 mps 706 mmHg 96%
03:00 +12°C° 0 mm 1 mps 706 mmHg 95%
04:00 +12°C° 0.1 mm 1 mps 706 mmHg 95%
05:00 +13°C° 0.1 mm 1 mps 706 mmHg 95%
06:00 +13°C° 0.1 mm 1 mps 706 mmHg 94%
07:00 +14°C° 0.5 mm 1 mps 706 mmHg 94%
08:00 +14°C° 0.5 mm 1 mps 706 mmHg 94%
09:00 +15°C° 0.5 mm 1 mps 706 mmHg 94%
10:00 +15°C° 0.5 mm 1 mps 706 mmHg 94%
11:00 +15°C° 0.5 mm 2 mps 706 mmHg 94%
12:00 +15°C° 0.5 mm 2 mps 706 mmHg 95%
13:00 +15°C° 0.1 mm 2 mps 706 mmHg 91%
14:00 +16°C° 0.1 mm 3 mps 706 mmHg 88%
15:00 +17°C° 0.1 mm 3 mps 706 mmHg 84%
16:00 +16°C° 0.1 mm 2 mps 706 mmHg 85%
17:00 +16°C° 0.1 mm 2 mps 705 mmHg 85%
18:00 +16°C° 0.1 mm 1 mps 705 mmHg 86%
19:00 +15°C° 0 mm 1 mps 705 mmHg 88%
20:00 +13°C° 0 mm 1 mps 705 mmHg 90%
21:00 +12°C° 0 mm 1 mps 705 mmHg 92%
22:00 +12°C° 0 mm 1 mps 705 mmHg 90%
23:00 +12°C° 0 mm 1 mps 705 mmHg 89%

6 Agosto, Viernes

Tiempo Temperatura Precipitaciones Viento Presión Humedad
00:00 +13°C° 0 mm 1 mps 704 mmHg 87%
01:00 +13°C° 0 mm 1 mps 704 mmHg 86%
02:00 +13°C° 0 mm 1 mps 704 mmHg 86%
03:00 +13°C° 0 mm 1 mps 704 mmHg 86%
04:00 +14°C° 0 mm 1 mps 704 mmHg 86%
05:00 +14°C° 0 mm 1 mps 704 mmHg 86%
06:00 +15°C° 0 mm 2 mps 704 mmHg 86%
07:00 +16°C° 0.1 mm 3 mps 704 mmHg 83%
08:00 +17°C° 0.1 mm 4 mps 705 mmHg 80%
09:00 +17°C° 0.1 mm 5 mps 705 mmHg 77%
10:00 +19°C° 0.1 mm 5 mps 705 mmHg 70%
11:00 +20°C° 0.1 mm 5 mps 705 mmHg 62%
12:00 +22°C° 0.1 mm 5 mps 705 mmHg 55%
13:00 +22°C° 0 mm 5 mps 705 mmHg 57%
14:00 +22°C° 0 mm 5 mps 705 mmHg 59%
15:00 +22°C° 0 mm 5 mps 705 mmHg 61%
16:00 +20°C° 0 mm 3 mps 705 mmHg 68%
17:00 +19°C° 0 mm 2 mps 705 mmHg 75%
18:00 +19°C° 0 mm 1 mps 705 mmHg 82%
19:00 +18°C° 0 mm 1 mps 705 mmHg 85%
20:00 +15°C° 0 mm 1 mps 704 mmHg 87%
21:00 +14°C° 0 mm 1 mps 704 mmHg 90%
22:00 +14°C° 0 mm 1 mps 704 mmHg 90%
23:00 +14°C° 0 mm 1 mps 704 mmHg 91%

7 Agosto, Sábado

Tiempo Temperatura Precipitaciones Viento Presión Humedad
00:00 +13°C° 0 mm 1 mps 703 mmHg 91%
01:00 +13°C° 0 mm 1 mps 703 mmHg 91%
02:00 +13°C° 0 mm 1 mps 703 mmHg 91%
03:00 +13°C° 0 mm 1 mps 703 mmHg 92%
04:00 +14°C° 0 mm 1 mps 703 mmHg 90%
05:00 +15°C° 0 mm 1 mps 702 mmHg 88%
06:00 +15°C° 0 mm 1 mps 702 mmHg 86%
07:00 +18°C° 0 mm 1 mps 702 mmHg 83%
08:00 +18°C° 0 mm 2 mps 703 mmHg 79%
09:00 +19°C° 0 mm 2 mps 703 mmHg 75%
10:00 +18°C° 1.2 mm 2 mps 703 mmHg 80%
11:00 +18°C° 1.2 mm 2 mps 703 mmHg 85%
12:00 +17°C° 1.2 mm 2 mps 703 mmHg 89%
13:00 +17°C° 4.7 mm 2 mps 703 mmHg 92%
14:00 +16°C° 4.7 mm 2 mps 703 mmHg 94%
15:00 +16°C° 4.7 mm 1 mps 703 mmHg 97%
16:00 +16°C° 4.6 mm 1 mps 704 mmHg 97%
17:00 +15°C° 4.6 mm 2 mps 704 mmHg 98%
18:00 +15°C° 4.6 mm 2 mps 704 mmHg 98%
19:00 +15°C° 1 mm 2 mps 705 mmHg 98%
20:00 +14°C° 1 mm 2 mps 705 mmHg 97%
21:00 +14°C° 1 mm 2 mps 706 mmHg 96%
22:00 +14°C° 0.1 mm 2 mps 706 mmHg 96%
23:00 +14°C° 0.1 mm 2 mps 706 mmHg 95%

8 Agosto, Domingo

Tiempo Temperatura Precipitaciones Viento Presión Humedad
00:00 +14°C° 0.1 mm 2 mps 706 mmHg 95%
01:00 +13°C° 0 mm 2 mps 706 mmHg 95%
02:00 +13°C° 0 mm 2 mps 706 mmHg 95%
03:00 +13°C° 0 mm 2 mps 706 mmHg 95%
04:00 +13°C° 0 mm 2 mps 707 mmHg 95%
05:00 +12°C° 0 mm 3 mps 707 mmHg 94%
06:00 +12°C° 0 mm 3 mps 707 mmHg 94%
07:00 +14°C° 0 mm 3 mps 708 mmHg 86%
08:00 +15°C° 0 mm 4 mps 708 mmHg 79%
09:00 +16°C° 0 mm 5 mps 709 mmHg 71%
10:00 +16°C° 0.1 mm 5 mps 709 mmHg 68%
11:00 +17°C° 0.1 mm 5 mps 709 mmHg 64%
12:00 +19°C° 0.1 mm 5 mps 710 mmHg 60%
13:00 +19°C° 0.1 mm 5 mps 710 mmHg 62%
14:00 +19°C° 0.1 mm 5 mps 710 mmHg 64%
15:00 +18°C° 0.1 mm 4 mps 710 mmHg 65%
16:00 +17°C° 0.1 mm 4 mps 711 mmHg 71%
17:00 +16°C° 0.1 mm 3 mps 711 mmHg 78%
18:00 +15°C° 0.1 mm 2 mps 711 mmHg 84%
19:00 +14°C° 0 mm 2 mps 711 mmHg 85%
20:00 +13°C° 0 mm 2 mps 712 mmHg 87%
21:00 +12°C° 0 mm 2 mps 712 mmHg 88%
22:00 +12°C° 0 mm 1 mps 712 mmHg 87%
23:00 +11°C° 0 mm 1 mps 712 mmHg 85%
Mostrar más

Necesitamos Su Consentimiento

Meteoprog y nuestros Proveedores de Servicios pueden almacenar y acceder a sus datos personales como cookies, identificadores de dispositivo u otras tecnologías similares de su dispositivo y procesar dichos datos para personalizar contenido y anuncios, además de ofrecer funciones de redes sociales y analizar el tráfico.

  • Almacenar y/o acceder a información en su dispositivo

    Se puede almacenar o acceder a cookies, identificadores de dispositivo u otra información de su dispositivo para los fines anteriormente indicados.

  • Anuncios y contenido personalizados, medición de anuncios y contenido, percepciones del público, y desarrollo de productos

    Los anuncios y el contenido pueden personalizarse en base a su perfil. Se pueden añadir más datos para personalizar mejor los anuncios y contenidos. Se puede medir el rendimiento de los anuncios y contenidos. Se puede obtener la percepción sobre el público que ha visto los anuncios y contenidos. Dichos datos pueden usarse para desarrollar o mejorar la experiencia del usuario, sistemas y software.

Al hacer clic en ‘Estoy De Acuerdo’ usted permitirá el uso de las cookies, identificadores de dispositivo, balizas web u otras tecnologías similares indicadas. Su configuración puede cambiarse desde el navegador de su dispositivo.

Para ciertos fines, los intereses legítimos pueden ser considerados por encima del consentimiento. Puede leer más sobre ello en nuestra Política de Privacidad y Cookies.